Overview Statistics Trail Chart Weather Telemetry Raw packets
 

This is the latest recevied weather packets stored in our database for station/object KB9OQF-5. If no packets are shown the sender has not sent any weather packets the latest 10 day(s).

<< 1 2 3 4 5 6 >>
Time Temp. Humidity Pressure Rain* Wind** Luminosity Snow
1788409114 26.11° C 76% 985 hPa 0 mm - - -
1788407364 26.67° C 76% 985 hPa 0 mm - - -
1788407052 26.67° C 76% 985 hPa 0 mm - - -
1788407013 26.67° C 76% 985 hPa 0 mm - - -
1788406664 26.67° C 76% 985 hPa 0 mm - - -
1788405614 26.67° C 76% 985 hPa 0 mm - - -
1788405263 26.67° C 76% 985 hPa 0 mm - - -
1788404913 26.67° C 75% 985 hPa 0 mm - - -
1788401065 27.78° C 73% 985 hPa 0 mm - - -
1788355941 25.56° C 76% 988 hPa 0 mm - - -
1788355735 25.56° C 76% 988 hPa 0 mm - - -
1788351886 23.89° C 83% 988 hPa 0 mm - - -
1788348036 22.78° C 83% 988 hPa 0 mm - - -
1788345904 23.33° C 82% 987 hPa 0 mm - - -
1788345585 23.33° C 82% 987 hPa 0 mm - - -
1788344535 23.33° C 82% 987 hPa 0 mm - - -
1788344203 23.33° C 81% 987 hPa 0 mm - - -
1788343489 23.33° C 82% 987 hPa 0 mm - - -
1788342466 23.89° C 81% 987 hPa 0 mm - - -
1788342435 23.89° C 81% 987 hPa 0 mm - - -
1788342087 23.89° C 81% 987 hPa 0 mm - - -
1788341035 23.89° C 82% 987 hPa 0 mm - - -
1788339285 23.89° C 83% 987 hPa 0 mm - - -
1788338934 23.89° C 82% 987 hPa 0 mm - - -
1788337538 23.89° C 83% 987 hPa 0 mm - - -

* Rain latest hour (hover to see other rain measurements)
** Current wind speed in m/s (hover to see current wind gust speed)